DW7322 Weather Reports


Display with metric or nautical units.
time (UTC)temp
F
wind
direction
speed
MPH
gust
MPH
rain 1hr
in
rain 24hr
in
rain mn
in
humidity
%
barometer
mb
20260906110044 67 268 0.0 1.0 0.00 0.00 0.00 95 1017.3
20260906104536 66 14 0.0 0.0 0.00 0.00 0.00 95 1017.3
20260906103053 66 15 0.0 0.0 0.00 0.00 0.00 95 1017.0
20260906101521 66 14 0.0 0.0 0.00 0.00 0.00 95 1016.8
20260906100018 66 16 0.0 0.0 0.00 0.00 0.00 95 1016.8
20260906094547 66 15 0.0 0.0 0.00 0.00 0.00 95 1016.7
20260906093100 66 16 0.0 0.0 0.00 0.00 0.00 95 1016.7
20260906093002 66 15 0.0 0.0 0.00 0.00 0.00 95 1016.7
20260906091531 66 17 0.0 0.0 0.00 0.00 0.00 95 1016.7
20260906090007 66 17 0.0 0.0 0.00 0.00 0.00 95 1016.7
20260906084533 66 17 0.0 0.0 0.00 0.00 0.00 95 1016.7
20260906083054 67 30 0.0 0.0 0.00 0.00 0.00 95 1016.6
20260906081517 67 30 0.0 0.0 0.00 0.00 0.00 95 1016.8
20260906080008 67 29 0.0 0.0 0.00 0.00 0.00 94 1016.8
20260906074527 67 30 0.0 0.0 0.00 0.00 0.00 94 1016.8
20260906073046 68 29 0.0 0.0 0.00 0.00 0.00 94 1016.8
20260906071507 68 30 0.0 0.0 0.00 0.00 0.00 94 1016.8
20260906070003 68 30 0.0 0.0 0.00 0.00 0.00 93 1017.0
20260906064528 69 30 0.0 0.0 0.00 0.00 0.00 93 1016.9
20260906063043 69 30 0.0 0.0 0.00 0.00 0.00 92 1016.8
20260906061508 70 29 0.0 0.0 0.00 0.00 0.00 92 1016.8
20260906060011 70 32 0.0 0.0 0.00 0.00 0.00 91 1016.9
20260906054531 70 32 0.0 0.0 0.00 0.00 0.00 91 1016.8
20260906053043 71 46 0.0 2.0 0.00 0.00 0.00 91 1016.7
20260906051515 71 258 0.0 0.0 0.00 0.00 0.00 91 1016.7
20260906050123 71 21 0.0 0.0 0.00 0.00 0.00 91 1016.5
20260906044521 71 75 0.0 0.0 0.00 0.00 0.00 91 1016.4
20260906043046 71 75 0.0 0.0 0.00 0.00 0.00 91 1016.3
20260906041510 71 75 0.0 0.0 0.00 0.00 0.00 90 1016.1
20260906040005 71 75 0.0 0.0 0.00 0.00 0.00 89 1015.8
20260906034530 71 68 0.0 0.0 0.00 0.00 0.00 89 1015.7
20260906033047 71 346 0.0 0.0 0.00 0.00 0.00 89 1015.6
20260906031514 72 234 0.0 0.0 0.00 0.00 0.00 89 1015.6
20260906030038 72 17 0.0 0.0 0.00 0.00 0.00 88 1015.5
20260906024527 72 164 0.0 0.0 0.00 0.00 0.00 88 1015.5
20260906023056 72 8 0.0 0.0 0.00 0.00 0.00 87 1015.5
20260906021504 72 112 0.0 0.0 0.00 0.00 0.00 87 1015.4
20260906020004 72 115 0.0 1.0 0.00 0.00 0.00 87 1015.4
20260906014531 72 8 0.0 2.0 0.00 0.00 0.00 87 1015.3
20260906013039 72 356 0.0 1.0 0.00 0.00 0.00 87 1015.4
20260906011501 72 49 0.0 1.0 0.00 0.00 0.00 87 1015.4
20260906010116 73 27 0.0 1.0 0.00 0.00 0.00 86 1015.3
20260906004601 74 39 0.0 0.0 0.00 0.00 0.00 85 1015.2
20260906003022 75 80 0.0 0.0 0.00 0.00 0.00 84 1014.9
20260906001542 76 8 0.0 0.0 0.00 0.00 0.00 84 1014.7
20260906000101 76 131 0.0 0.0 0.00 0.00 0.00 83 1014.6
20260905234542 78 354 0.0 1.0 0.00 0.00 0.00 82 1014.2
20260905233008 79 342 0.0 0.0 0.00 0.00 0.00 80 1014.2
20260905231536 79 328 0.0 0.0 0.00 0.00 0.00 78 1014.1
20260905230056 81 139 0.0 1.0 0.00 0.00 0.00 76 1014.0
20260905224548 80 294 0.0 0.0 0.00 0.00 0.00 75 1013.7
20260905223015 80 12 0.0 0.0 0.00 0.00 0.00 75 1013.6
20260905221539 81 14 0.0 0.0 0.00 0.00 0.00 73 1013.6
20260905220057 81 312 0.0 0.0 0.00 0.00 0.00 74 1013.6
20260905214551 84 71 0.0 0.0 0.00 0.00 0.00 71 1013.5
20260905213017 83 135 0.0 0.0 0.00 0.00 0.00 75 1013.7
20260905211542 82 229 0.0 0.0 0.00 0.00 0.00 76 1013.7
20260905210111 82 16 0.0 0.0 0.00 0.00 0.00 77 1013.8
20260905204557 82 280 0.0 0.0 0.00 0.00 0.00 77 1014.0
20260905203021 81 4 0.0 0.0 0.00 0.00 0.00 77 1014.2
20260905201542 80 6 0.0 0.0 0.00 0.00 0.00 80 1014.1
20260905200131 80 52 0.0 1.0 0.00 0.00 0.00 81 1014.2
20260905194554 81 38 0.0 0.0 0.00 0.00 0.00 78 1014.3
20260905193021 81 354 0.0 0.0 0.00 0.00 0.00 79 1014.1
20260905191544 83 1 0.0 0.0 0.00 0.00 0.00 77 1014.1
20260905190112 83 274 0.0 0.0 0.00 0.00 0.00 78 1014.1
20260905184602 84 68 0.0 0.0 0.00 0.00 0.00 76 1014.1
20260905184509 84 286 0.0 0.0 0.00 0.00 0.00 75 1014.1
20260905183025 84 286 0.0 0.0 0.00 0.00 0.00 75 1014.2
20260905181551 84 1 0.0 0.0 0.00 0.00 0.00 75 1014.2
20260905180116 84 349 0.0 0.0 0.00 0.00 0.00 77 1014.2
20260905174508 84 77 0.0 0.0 0.00 0.00 0.00 77 1014.0
20260905173039 85 274 0.0 0.0 0.00 0.00 0.00 77 1014.0
20260905171556 85 309 0.0 0.0 0.00 0.00 0.00 75 1014.1
20260905170111 85 4 0.0 0.0 0.00 0.00 0.00 76 1014.2
20260905164509 85 342 0.0 0.0 0.00 0.00 0.00 76 1014.3
20260905163024 84 244 0.0 0.0 0.00 0.00 0.00 77 1014.2
20260905161535 82 64 0.0 0.0 0.00 0.00 0.00 81 1014.3
20260905160059 81 83 0.0 0.0 0.00 0.00 0.00 83 1014.4
20260905154550 80 287 0.0 0.0 0.00 0.00 0.00 84 1014.4
20260905153057 80 213 0.0 0.0 0.00 0.00 0.00 84 1014.3
20260905151515 79 107 0.0 0.0 0.00 0.00 0.00 87 1014.1
20260905150001 76 53 0.0 1.0 0.00 0.00 0.00 90 1014.0
20260905144519 76 141 0.0 1.0 0.00 0.00 0.00 91 1013.6
20260905143030 75 148 0.0 1.0 0.00 0.00 0.00 92 1013.6
20260905141547 75 112 0.0 1.0 0.00 0.00 0.00 93 1013.7
20260905140113 74 1 0.0 0.0 0.00 0.00 0.00 93 1013.6
20260905134502 75 336 0.0 3.0 0.00 0.00 0.00 93 1013.4
20260905133029 75 92 0.0 1.0 0.00 0.00 0.00 93 1013.3
20260905131546 75 346 0.0 1.0 0.00 0.00 0.00 94 1013.5
20260905130057 75 79 0.0 1.0 0.00 0.00 0.00 94 1013.5
20260905124552 74 120 0.0 1.0 0.00 0.00 0.00 95 1012.9
20260905123104 74 332 0.0 0.0 0.00 0.00 0.00 95 1012.7
20260905123003 74 332 0.0 0.0 0.00 0.00 0.00 95 1012.6
20260905121519 74 332 0.0 0.0 0.00 0.00 0.00 95 1012.5
20260905120057 74 333 0.0 0.0 0.00 0.00 0.00 95 1012.4
20260905114537 74 332 0.0 0.0 0.00 0.00 0.00 95 1012.3
20260905113055 74 333 0.0 0.0 0.00 0.00 0.00 95 1012.0
20260905111510 73 275 0.0 0.0 0.00 0.00 0.00 95 1011.9